星链-34635 (STARLINK-34635)

导读

STARLINK-34635是美国太空探索技术公司(SpaceX)于2025年7月8日发射的星链系列卫星,隶属于Starlink星座组网计划。该卫星旨在为全球范围提供高速互联网接入服务,尤其覆盖偏远地区与网络基础设施薄弱区域,进一步扩充星链星座规模,增强全球卫星互联网服务的覆盖密度与稳定性,是SpaceX推进大规模低轨星座建设的重要组成部分。

Basic Information
目录编号:
64761
目录名称:
STARLINK-34635
国际标识:
2025-147G
轨道中心:
EARTH
卫星名称:
星链-34635
卫星全名:
星链-34635 (STARLINK-34635)
卫星状态:
在轨 (已飞行423 天)
发射日期:
2025-07-08 UTC
国别 :
美国 (US)
星等 :
--
Orbit Information
数据来源 国际轨道数据
星历时间: 2026-09-04T00:41:04+0800
15小时前
查看轨道信息
半长轴: 6840.872km
偏心率: 0.0001312
轨道倾角: 53.158°
近地点辐角 81.875°
升交点赤经 132.502°
平近点角 278.240°
近地点: 461.837km
远地点: 463.633km
周期: 93.848分钟
每日圈数: 15.343896
Detailed Information
固有亮度:
5
最大亮度:
2.5
卫星平台:
Starlink V1.0
覆盖范围:
全球
运营商:
太空探索技术公司
运营商所在国:
美国
制造商(研发单位):
太空探索技术公司
制造商所在国:
美国
使用方式:
暂无
Satellite Introduction
Starlink 计划是 SpaceX 推出的全球卫星互联网项目,通过发射低轨道卫星,为全球尤其是偏远地区提供高速、低延迟的互联网服务。自 2019 年起,Starlink 已部署数千颗卫星,旨在缩小全球数字鸿沟,推动互联网普及。该项目还为军事、航空等行业提供通信支持,带来广泛经济效益。
2D Orbit Map
3D Orbit Map
Orbit Altitude Analysis Chart
Orbit Inclination Analysis Chart
Orbit Comprehensive Analysis Chart
View Comprehensive Chart
Conjunction Data List
Event ID Objects TCA Miss Dist (km) Collision Risk Probability Collision Risk Index (CRI) Action
CDM_260905-100106-009806-476121
2026-09-05T
10:01:14+0000
1.053 km
极远距离
1.954166E-5 中风险 0.61
CDM_260903-210306-472006-476121
2026-09-03T
21:03:36+0000
1.270 km
极远距离
8.904859E-6 低风险 0.54
CDM_260905-082706-009806-476121
2026-09-05T
08:27:26+0000
1.343 km
极远距离
8.400559E-6 低风险 0.53
CDM_260904-142703-718106-476121
2026-09-04T
14:27:28+0000
1.630 km
极远距离
5.117431E-6 低风险 0.49
CDM_260905-082305-973006-476121
2026-09-05T
08:23:20+0000
1.656 km
极远距离
3.772964E-6 低风险 0.47
CDM_260904-200405-248306-476121
2026-09-04T
20:04:28+0000
2.850 km
极远距离
1.277826E-6 低风险 0.37
CDM_260904-211405-019906-476121
2026-09-04T
21:14:12+0000
2.780 km
极远距离
5.194419E-7 极低风险 0.29
CDM_260905-133704-941306-476121
2026-09-05T
13:37:26+0000
2.892 km
极远距离
2.641614E-7 极低风险 0.23